SCP
0 0 0 0 0 0 0 0 0 0 0 0 0 0 0 0 0 0 0 0 0 0 0 0 -0 -0 -0 0 0 0 0 0 0 0 0 0 0 0 0 0 0 0 0 0
0 0 0 0 0 0 0 0 0 0 0 0 0 0 0 0 0 0 0 0 0 -0 -0 -0 -0 -0 -0 0 0 0 0 0 0 0 0 0 0 0 0 0 0 0 0 0
0 0 0 0 0 0 0 0 0 0 0 0 0 0 0 0 0 0 0 0 -0 -0 -0 -0 -0 -0 0 0 0 0 0 0 0 0 0 0 0 0 0 0 0 0 0 0
0 0 0 0 0 0 0 0 0 0 0 0 0 0 0 0 -0 -0 0 -0 -0 -0 -0 -0 -0 0 0 0 0 0 0 0 0 0 0 0 0 0 0 0 0 0 0 0
0 0 0 0 0 0 0 0 0 0 0 0 0 0 0 0 -0 -0 -0 -0 -0 -0 -0 -0 -0 0 0 0 0 0 0 0 0 0 0 0 0 0 0 0 0 0 0 0
0 0 0 0 0 0 0 0 0 0 0 0 0 0 -0 -0 -0 -0 -0 -0 -0 -0 -0 -0 0 0 0 0 0 0 0 0 0 0 0 0 0 0 0 0 0 0 0 0
0 0 0 0 0 0 0 0 0 0 0 0 -0 -0 -0 -0 0 -0 -0 -0 -0 -0 -0 -0 0 0 0 0 0 0 0 0 0 0 0 0 0 0 0 0 0 0 0 0
0 0 0 0 0 0 0 0 0 0 0 0 0 0 0 0 -0 -0 -0 -0 -0 -0 -0 0 0 0 0 0 0 0 0 0 0 0 0 0 0 0 0 0 0 0 0 0
0 0 0 0 0 0 0 0 0 0 0 0 0 0 0 -0 -0 -0 -0 -0 -0 -0 -0 0 0 0 0 0 0 0 0 0 0 0 0 0 0 0 0 0 0 0 0 0
0 0 0 0 0 0 0 0 0 0 0 0 0 0 -0 -0 -0 -0 -0 -0 -0 -0 0 0 0 0 0 0 0 0 0 0 0 0 0 0 0 0 0 0 0 0 0 0
0 0 0 0 0 0 0 0 0 0 0 0 0 -0 -0 -0 -0 -0 -0 0 -0 -0 0 0 0 0 0 0 0 0 0 0 0 0 0 0 0 0 0 0 0 0 0 0
0 0 0 0 -0 -0 0 0 0 0 0 0 -0 -0 -0 -0 -0 -0 0 0 -0 0 0 0 0 0 0 0 0 0 0 0 0 0 0 0 0 0 -0 0 0 0 0 0
0 0 0 0 0 0 0 0 0 0 0 -0 -0 -0 -0 -0 -0 -0 0 0 0 -0 0 0 0 0 0 0 0 0 0 0 0 0 0 0 0 0 0 0 0 0 0 0
0 0 0 0 0 0 0 0 0 0 0 -0 -0 -0 -0 -0 -0 0 0 -0 -0 0 0 0 0 0 0 0 0 0 0 0 0 0 0 0 0 0 0 0 0 0 0 0
0 0 0 0 0 0 0 0 0 0 0 -0 -0 -0 -0 -0 -0 0 -0 -0 0 0 0 0 0 0 0 0 0 0 0 0 0 0 0 0 0 0 0 0 0 0 0 0
0 0 0 0 0 0 0 0 0 0 0 -0 -0 -0 -0 -0 -0 -0 0 -0 -0 -0 0 0 0 0 0 0 0 0 0 0 0 0 0 0 0 0 0 0 0 0 0 0
0 0 0 0 0 0 0 0 0 0 0 0 -0 -0 -0 -0 -0 0 -0 -0 -0 0 -0 -0 0 0 0 0 0 0 0 0 0 0 0 0 0 0 0 -0 0 0 0 0
0 0 0 0 0 0 0 0 0 0 0 0 -0 -0 -0 -0 -0 -0 0 -0 0 -0 -0 -0 0 0 -0 0 0 0 0 0 0 0 0 0 0 0 0 0 -0 0 0 0
0 0 0 0 0 0 0 0 0 0 0 0 0 -0 -0 -0 -0 -0 -0 -0 0 -0 -0 -0 -0 0 0 0 0 0 0 0 0 0 0 0 0 0 0 0 0 0 0 0
-0 -0 -0 -0 0 0 0 0 0 0 0 0 0 -0 -0 -0 -0 -0 -0 -0 -0 0 0 0 0 0 0 0 0 0 0 0 0 0 0 0 0 0 0 0 0 -0 -0 -0
-0 -0 -0 -0 -0 0 0 -0 -0 0 -0 -0 -0 -0 -0 -0 -0 -0 -0 -0 0 -0 -0 -0 0 0 0 0 0 0 0 0 0 0 0 0 0 0 0 0 0 0 0 0
-0 0 0 -0 -0 -0 -0 0 -0 0 0 -0 -0 0 0 0 0 -0 -0 -0 -0 -0 -0 -0 -0 0 0 0 0 0 0 0 0 0 0 0 0 0 0 -0 0 -0 0 0
-0 -0 -0 0 -0 0 -0 -0 -0 -0 0 0 0 0 0 -0 -0 -0 -0 -0 -0 -0 -0 -0 -0 0 0 -0 0 0 0 0 0 0 0 0 0 0 0 0 0 0 -0 0
-0 -0 -0 -0 -0 -0 -0 -0 -0 -0 -0 -0 0 -0 -0 0 0 -0 -0 -0 -0 -0 -0 -0 -0 -0 -0 -0 0 0 0 0 0 0 0 0 0 0 0 0 0 -0 -0 -0
-0 -0 -0 -0 -0 -0 -0 0 -0 -0 -0 0 0 0 -0 -0 -0 -0 -0 -0 -0 -0 -0 -0 -0 -0 -0 -0 -0 -0 -0 0 0 0 0 0 0 0 0 0 0 0 -0 -0
-0 -0 -0 -0 -0 -0 0 0 0 0 0 0 0 -0 -0 -0 0 0 -0 -0 -0 -0 -0 -0 -0 -0 -0 -0 -0 -0 0 0 -0 -0 -0 -0 -0 0 -0 -0 -0 -0 -0 -0
0 -0 -0 0 0 -0 -0 0 0 0 0 0 0 -0 -0 -0 0 0 0 -0 -0 -0 -0 -0 -0 -0 -0 -0 -0 -0 -0 0 -0 -0 -0 -0 -0 -0 -0 -0 -0 0 -0 -0
Wind_Speed_500mb
8 9 6 10 13 11 18 19 9 8 12 19 14 13 9 21 19 25 31 38 43 48 56 65 77 83 89 104 110 102 96 87 79 79 77 77 79 81 82 87 92 81 63 42
8 10 10 17 19 28 31 29 23 22 17 9 12 18 25 23 29 34 36 36 42 51 63 70 78 93 109 107 96 88 76 70 76 72 72 73 67 77 78 66 66 77 73 56
9 9 11 11 29 32 30 32 27 24 6 4 2 11 16 27 37 30 26 40 54 64 68 77 92 104 96 87 80 75 69 69 68 64 65 69 75 68 61 61 67 69 72 71
5 4 7 13 18 13 16 18 19 18 12 8 4 6 22 39 30 29 43 57 66 66 77 92 95 85 76 71 70 69 65 67 65 62 59 58 65 68 66 64 57 47 46 49
5 6 12 17 7 6 7 9 8 13 7 9 15 3 7 41 28 40 54 60 62 76 88 89 78 69 65 67 67 65 66 63 59 53 59 60 67 69 65 60 45 54 55 50
4 4 9 7 9 9 14 6 1 16 9 10 15 7 7 32 40 54 57 62 78 82 84 75 67 61 59 62 63 63 59 55 48 58 67 75 77 72 67 61 60 52 38 38
9 5 12 11 12 12 8 4 13 18 12 8 3 3 27 38 49 55 68 75 79 79 72 67 59 54 58 61 61 58 56 50 56 67 72 70 67 75 66 56 50 43 53 29
6 7 13 10 15 4 5 17 20 17 15 15 15 18 29 42 57 66 72 76 73 70 69 61 54 52 58 60 59 55 46 55 65 71 76 82 74 77 61 50 47 33 41 41
13 10 6 5 17 24 23 19 14 19 15 13 16 23 36 51 59 63 64 65 64 65 67 60 53 50 57 58 54 40 49 60 67 75 71 71 65 60 47 42 39 30 32 36
3 4 7 6 10 18 17 8 19 14 11 15 20 30 43 51 56 58 63 61 65 67 67 65 57 52 50 49 39 43 55 66 64 62 64 62 52 38 45 36 33 30 29 28
6 4 14 14 11 17 19 20 16 12 11 17 24 34 41 48 51 57 58 63 64 64 62 61 56 52 44 36 36 45 53 60 65 53 59 51 39 26 25 26 29 34 27 31
9 16 8 25 20 15 26 22 14 8 12 20 29 33 40 45 51 53 59 63 63 59 56 56 53 47 40 33 37 43 53 62 60 54 49 41 36 25 18 18 20 30 25 36
8 11 6 15 22 29 29 23 15 13 17 21 27 31 42 47 52 58 63 60 63 63 63 59 53 47 40 37 39 43 46 62 55 40 40 34 30 28 15 12 21 20 25 35
17 14 12 17 34 32 30 24 16 18 19 20 27 27 40 51 59 65 70 69 69 68 69 64 56 51 44 37 39 34 39 50 55 44 31 29 26 20 17 12 7 24 32 33
13 14 13 26 42 37 27 17 16 21 18 20 30 37 40 47 55 59 63 70 70 74 74 70 64 58 49 41 35 31 33 41 51 52 34 24 24 17 12 11 11 14 25 40
9 16 36 43 40 34 24 20 19 19 15 17 25 34 50 43 51 58 57 67 78 83 80 76 69 63 53 48 37 34 35 36 43 43 39 31 17 20 15 14 17 12 22 52
20 23 29 39 38 32 26 20 20 19 16 17 21 24 37 50 63 70 58 62 70 74 75 74 69 64 56 49 40 36 39 39 42 46 30 37 27 15 15 12 11 5 22 54
23 22 18 30 34 32 27 23 19 17 17 14 18 25 35 49 58 71 65 61 69 76 78 76 72 67 59 51 45 39 37 38 38 41 42 26 24 9 11 8 6 13 31 42
26 24 27 30 26 22 22 20 18 18 17 17 20 28 35 38 53 65 72 64 69 80 81 76 76 72 68 58 52 48 41 37 36 38 38 28 22 9 14 13 14 21 39 36
28 32 34 32 22 18 25 22 20 25 24 25 23 28 35 35 49 64 72 73 57 64 69 71 73 75 73 66 62 56 49 47 45 41 38 35 24 16 5 11 10 18 27 43
33 38 29 25 23 18 21 18 17 27 29 32 29 29 31 33 41 61 71 80 72 66 65 68 72 73 74 75 74 68 64 58 57 50 46 41 35 26 16 8 6 3 18 30
32 29 26 27 26 26 21 17 17 21 31 36 40 31 31 36 39 55 63 67 72 67 69 71 71 72 72 71 78 78 70 65 60 54 50 44 40 33 23 13 10 13 13 16
33 30 30 25 22 26 27 24 19 12 21 31 40 41 32 33 37 47 60 63 67 69 68 70 69 69 73 79 77 77 77 74 70 66 59 50 45 41 33 21 12 8 13 16
28 28 31 27 24 24 23 21 16 19 10 21 32 42 36 33 32 33 46 55 64 68 69 68 68 69 70 73 75 78 74 74 76 71 65 57 49 45 39 35 26 16 16 16
29 28 23 17 17 21 19 20 23 16 20 10 26 38 40 23 29 30 33 50 61 67 69 68 66 67 69 70 72 74 76 75 73 71 69 65 60 53 45 37 33 23 19 12
24 25 19 19 23 19 17 9 21 22 13 13 23 34 42 35 22 29 37 42 58 65 70 70 70 67 65 66 67 70 72 73 73 71 70 66 64 61 54 46 35 26 22 11
21 20 23 20 23 19 17 15 21 20 16 19 23 30 39 43 28 27 38 45 54 61 67 70 71 70 69 65 65 66 68 70 71 70 69 65 61 60 59 54 43 32 20 9
Wind_Direction_500mb
249 259 213 226 256 272 278 240 225 249 229 262 121 134 109 93 56 33 11 357 350 342 336 332 328 323 319 316 316 314 311 308 306 305 303 300 299 295 287 278 271 274 281 289
280 287 285 286 236 230 231 234 251 267 285 68 104 108 85 61 31 12 360 354 343 335 332 327 324 321 318 317 315 314 311 307 309 306 303 304 298 297 292 287 277 268 272 274
255 325 297 288 249 245 233 227 227 235 132 200 88 114 91 40 16 9 359 338 335 333 327 322 321 320 319 318 315 314 315 316 318 313 302 297 300 302 299 289 286 280 267 269
262 348 222 239 296 267 131 63 100 119 142 118 346 120 75 24 14 360 341 336 332 327 322 319 320 322 318 316 315 315 311 316 316 315 313 308 306 303 297 295 291 278 269 268
230 204 297 306 10 45 47 59 83 109 79 51 2 339 206 3 357 343 337 332 327 321 318 321 324 323 318 321 320 316 315 315 315 317 312 312 312 310 304 284 284 270 269 256
179 212 226 254 118 98 122 178 263 106 79 46 34 8 250 349 343 335 334 326 321 322 325 325 326 324 321 323 319 318 317 312 310 311 312 313 310 304 305 297 285 268 277 263
203 258 280 285 124 64 122 172 125 108 94 78 113 249 333 335 332 332 326 326 328 328 326 328 328 325 321 318 318 319 313 312 316 319 319 311 307 304 300 292 282 270 255 255
167 228 245 329 90 63 285 130 126 91 74 50 19 5 341 336 334 331 330 332 332 328 328 333 334 328 322 322 324 320 317 317 320 322 319 316 307 299 286 289 280 267 253 247
186 214 216 93 111 78 89 107 90 90 55 36 27 2 345 341 337 336 337 335 335 334 334 337 336 331 324 325 326 322 318 320 325 328 323 324 314 297 273 283 275 260 244 239
93 46 97 98 159 146 94 109 104 79 58 21 15 354 347 344 344 343 344 338 343 343 339 337 336 332 328 327 324 319 324 329 328 332 327 334 327 299 282 276 266 239 222 222
233 127 92 86 111 159 158 136 104 76 46 36 7 2 356 354 355 353 347 350 349 342 336 335 337 336 334 331 328 326 329 332 336 328 343 341 339 331 294 271 262 238 214 209
228 183 184 184 178 191 144 121 112 94 50 29 14 11 6 8 7 356 357 356 353 350 347 346 345 343 345 335 329 329 330 335 340 338 341 350 349 342 321 267 252 220 220 200
168 165 181 163 149 147 129 127 107 66 38 30 20 19 22 18 18 13 12 6 2 360 358 353 351 349 350 335 325 333 336 337 343 338 346 353 354 351 345 332 213 209 223 226
155 147 142 154 134 137 130 118 95 65 41 40 21 20 17 21 18 19 13 11 11 5 4 1 357 354 348 336 330 338 342 346 352 330 344 351 352 348 357 355 290 231 218 210
152 175 163 135 133 126 127 124 70 50 52 47 32 29 18 10 5 13 11 11 12 9 10 7 3 358 352 340 330 333 343 348 351 346 331 347 355 4 335 321 303 310 218 211
257 115 124 134 129 127 118 88 68 67 62 48 31 20 19 17 13 10 13 15 16 11 12 10 7 1 353 345 335 330 337 343 345 350 336 323 340 350 343 309 300 290 212 190
137 101 103 125 122 115 100 79 72 64 59 47 31 16 15 20 22 18 15 17 21 17 16 15 10 7 3 360 358 348 343 342 342 349 353 346 314 334 360 339 332 237 188 178
124 127 115 137 132 118 102 92 74 57 46 45 36 34 25 21 20 17 17 16 19 21 19 22 18 17 14 10 7 7 359 357 354 355 2 1 353 355 24 38 39 162 163 154
129 119 128 127 120 105 106 98 73 59 55 47 48 42 33 24 22 18 22 19 17 17 17 19 23 24 22 21 17 19 14 10 11 14 15 17 34 17 42 63 97 145 153 163
115 123 119 110 100 101 102 94 77 60 60 54 51 46 36 27 24 21 25 25 18 14 18 19 25 28 28 29 30 28 25 24 22 27 29 32 44 53 82 68 118 152 182 191
122 129 121 116 112 105 123 110 91 59 56 45 42 42 39 33 28 23 25 24 19 17 24 27 27 29 32 31 34 34 31 29 27 28 32 35 46 59 98 126 155 143 200 209
126 115 110 115 105 97 110 115 95 68 52 44 42 45 40 38 37 28 27 23 18 19 25 26 28 32 33 34 37 36 33 35 34 32 32 38 42 47 55 77 115 194 218 220
126 128 118 123 126 109 97 91 85 74 53 41 36 35 40 35 31 26 22 19 17 19 23 26 25 28 32 36 35 36 34 35 36 36 34 33 40 43 43 53 78 110 184 193
133 126 119 115 105 136 105 81 79 71 74 44 37 29 25 33 36 27 18 12 15 18 22 22 22 25 28 32 35 37 36 34 35 35 36 36 38 45 47 52 64 74 108 172
144 138 133 125 118 100 135 84 55 72 63 79 33 24 24 28 30 24 14 10 8 13 17 20 20 20 23 26 30 32 33 34 36 33 32 33 33 37 40 39 47 62 78 108
149 142 127 115 96 98 84 77 54 63 60 59 27 19 16 21 25 31 24 12 7 7 11 14 16 19 19 20 24 27 28 28 30 33 31 30 31 30 33 32 32 36 52 74
140 131 147 132 114 104 84 82 53 62 49 27 23 17 12 20 23 24 26 20 9 4 4 8 12 13 15 15 17 19 21 23 23 24 28 29 28 27 26 29 27 27 31 39
Wind_Speed_850mb
8 9 6 10 13 11 18 19 9 8 12 19 14 13 9 21 19 25 31 38 43 48 56 65 77 83 89 104 110 102 96 87 79 79 77 77 79 81 82 87 92 81 63 42
8 10 10 17 19 28 31 29 23 22 17 9 12 18 25 23 29 34 36 36 42 51 63 70 78 93 109 107 96 88 76 70 76 72 72 73 67 77 78 66 66 77 73 56
9 9 11 11 29 32 30 32 27 24 6 4 2 11 16 27 37 30 26 40 54 64 68 77 92 104 96 87 80 75 69 69 68 64 65 69 75 68 61 61 67 69 72 71
5 4 7 13 18 13 16 18 19 18 12 8 4 6 22 39 30 29 43 57 66 66 77 92 95 85 76 71 70 69 65 67 65 62 59 58 65 68 66 64 57 47 46 49
5 6 12 17 7 6 7 9 8 13 7 9 15 3 7 41 28 40 54 60 62 76 88 89 78 69 65 67 67 65 66 63 59 53 59 60 67 69 65 60 45 54 55 50
4 4 9 7 9 9 14 6 1 16 9 10 15 7 7 32 40 54 57 62 78 82 84 75 67 61 59 62 63 63 59 55 48 58 67 75 77 72 67 61 60 52 38 38
9 5 12 11 12 12 8 4 13 18 12 8 3 3 27 38 49 55 68 75 79 79 72 67 59 54 58 61 61 58 56 50 56 67 72 70 67 75 66 56 50 43 53 29
6 7 13 10 15 4 5 17 20 17 15 15 15 18 29 42 57 66 72 76 73 70 69 61 54 52 58 60 59 55 46 55 65 71 76 82 74 77 61 50 47 33 41 41
13 10 6 5 17 24 23 19 14 19 15 13 16 23 36 51 59 63 64 65 64 65 67 60 53 50 57 58 54 40 49 60 67 75 71 71 65 60 47 42 39 30 32 36
3 4 7 6 10 18 17 8 19 14 11 15 20 30 43 51 56 58 63 61 65 67 67 65 57 52 50 49 39 43 55 66 64 62 64 62 52 38 45 36 33 30 29 28
6 4 14 14 11 17 19 20 16 12 11 17 24 34 41 48 51 57 58 63 64 64 62 61 56 52 44 36 36 45 53 60 65 53 59 51 39 26 25 26 29 34 27 31
9 16 8 25 20 15 26 22 14 8 12 20 29 33 40 45 51 53 59 63 63 59 56 56 53 47 40 33 37 43 53 62 60 54 49 41 36 25 18 18 20 30 25 36
8 11 6 15 22 29 29 23 15 13 17 21 27 31 42 47 52 58 63 60 63 63 63 59 53 47 40 37 39 43 46 62 55 40 40 34 30 28 15 12 21 20 25 35
17 14 12 17 34 32 30 24 16 18 19 20 27 27 40 51 59 65 70 69 69 68 69 64 56 51 44 37 39 34 39 50 55 44 31 29 26 20 17 12 7 24 32 33
13 14 13 26 42 37 27 17 16 21 18 20 30 37 40 47 55 59 63 70 70 74 74 70 64 58 49 41 35 31 33 41 51 52 34 24 24 17 12 11 11 14 25 40
9 16 36 43 40 34 24 20 19 19 15 17 25 34 50 43 51 58 57 67 78 83 80 76 69 63 53 48 37 34 35 36 43 43 39 31 17 20 15 14 17 12 22 52
20 23 29 39 38 32 26 20 20 19 16 17 21 24 37 50 63 70 58 62 70 74 75 74 69 64 56 49 40 36 39 39 42 46 30 37 27 15 15 12 11 5 22 54
23 22 18 30 34 32 27 23 19 17 17 14 18 25 35 49 58 71 65 61 69 76 78 76 72 67 59 51 45 39 37 38 38 41 42 26 24 9 11 8 6 13 31 42
26 24 27 30 26 22 22 20 18 18 17 17 20 28 35 38 53 65 72 64 69 80 81 76 76 72 68 58 52 48 41 37 36 38 38 28 22 9 14 13 14 21 39 36
28 32 34 32 22 18 25 22 20 25 24 25 23 28 35 35 49 64 72 73 57 64 69 71 73 75 73 66 62 56 49 47 45 41 38 35 24 16 5 11 10 18 27 43
33 38 29 25 23 18 21 18 17 27 29 32 29 29 31 33 41 61 71 80 72 66 65 68 72 73 74 75 74 68 64 58 57 50 46 41 35 26 16 8 6 3 18 30
32 29 26 27 26 26 21 17 17 21 31 36 40 31 31 36 39 55 63 67 72 67 69 71 71 72 72 71 78 78 70 65 60 54 50 44 40 33 23 13 10 13 13 16
33 30 30 25 22 26 27 24 19 12 21 31 40 41 32 33 37 47 60 63 67 69 68 70 69 69 73 79 77 77 77 74 70 66 59 50 45 41 33 21 12 8 13 16
28 28 31 27 24 24 23 21 16 19 10 21 32 42 36 33 32 33 46 55 64 68 69 68 68 69 70 73 75 78 74 74 76 71 65 57 49 45 39 35 26 16 16 16
29 28 23 17 17 21 19 20 23 16 20 10 26 38 40 23 29 30 33 50 61 67 69 68 66 67 69 70 72 74 76 75 73 71 69 65 60 53 45 37 33 23 19 12
24 25 19 19 23 19 17 9 21 22 13 13 23 34 42 35 22 29 37 42 58 65 70 70 70 67 65 66 67 70 72 73 73 71 70 66 64 61 54 46 35 26 22 11
21 20 23 20 23 19 17 15 21 20 16 19 23 30 39 43 28 27 38 45 54 61 67 70 71 70 69 65 65 66 68 70 71 70 69 65 61 60 59 54 43 32 20 9
Wind_Direction_850mb
249 259 213 226 256 272 278 240 225 249 229 262 121 134 109 93 56 33 11 357 350 342 336 332 328 323 319 316 316 314 311 308 306 305 303 300 299 295 287 278 271 274 281 289
280 287 285 286 236 230 231 234 251 267 285 68 104 108 85 61 31 12 360 354 343 335 332 327 324 321 318 317 315 314 311 307 309 306 303 304 298 297 292 287 277 268 272 274
255 325 297 288 249 245 233 227 227 235 132 200 88 114 91 40 16 9 359 338 335 333 327 322 321 320 319 318 315 314 315 316 318 313 302 297 300 302 299 289 286 280 267 269
262 348 222 239 296 267 131 63 100 119 142 118 346 120 75 24 14 360 341 336 332 327 322 319 320 322 318 316 315 315 311 316 316 315 313 308 306 303 297 295 291 278 269 268
230 204 297 306 10 45 47 59 83 109 79 51 2 339 206 3 357 343 337 332 327 321 318 321 324 323 318 321 320 316 315 315 315 317 312 312 312 310 304 284 284 270 269 256
179 212 226 254 118 98 122 178 263 106 79 46 34 8 250 349 343 335 334 326 321 322 325 325 326 324 321 323 319 318 317 312 310 311 312 313 310 304 305 297 285 268 277 263
203 258 280 285 124 64 122 172 125 108 94 78 113 249 333 335 332 332 326 326 328 328 326 328 328 325 321 318 318 319 313 312 316 319 319 311 307 304 300 292 282 270 255 255
167 228 245 329 90 63 285 130 126 91 74 50 19 5 341 336 334 331 330 332 332 328 328 333 334 328 322 322 324 320 317 317 320 322 319 316 307 299 286 289 280 267 253 247
186 214 216 93 111 78 89 107 90 90 55 36 27 2 345 341 337 336 337 335 335 334 334 337 336 331 324 325 326 322 318 320 325 328 323 324 314 297 273 283 275 260 244 239
93 46 97 98 159 146 94 109 104 79 58 21 15 354 347 344 344 343 344 338 343 343 339 337 336 332 328 327 324 319 324 329 328 332 327 334 327 299 282 276 266 239 222 222
233 127 92 86 111 159 158 136 104 76 46 36 7 2 356 354 355 353 347 350 349 342 336 335 337 336 334 331 328 326 329 332 336 328 343 341 339 331 294 271 262 238 214 209
228 183 184 184 178 191 144 121 112 94 50 29 14 11 6 8 7 356 357 356 353 350 347 346 345 343 345 335 329 329 330 335 340 338 341 350 349 342 321 267 252 220 220 200
168 165 181 163 149 147 129 127 107 66 38 30 20 19 22 18 18 13 12 6 2 360 358 353 351 349 350 335 325 333 336 337 343 338 346 353 354 351 345 332 213 209 223 226
155 147 142 154 134 137 130 118 95 65 41 40 21 20 17 21 18 19 13 11 11 5 4 1 357 354 348 336 330 338 342 346 352 330 344 351 352 348 357 355 290 231 218 210
152 175 163 135 133 126 127 124 70 50 52 47 32 29 18 10 5 13 11 11 12 9 10 7 3 358 352 340 330 333 343 348 351 346 331 347 355 4 335 321 303 310 218 211
257 115 124 134 129 127 118 88 68 67 62 48 31 20 19 17 13 10 13 15 16 11 12 10 7 1 353 345 335 330 337 343 345 350 336 323 340 350 343 309 300 290 212 190
137 101 103 125 122 115 100 79 72 64 59 47 31 16 15 20 22 18 15 17 21 17 16 15 10 7 3 360 358 348 343 342 342 349 353 346 314 334 360 339 332 237 188 178
124 127 115 137 132 118 102 92 74 57 46 45 36 34 25 21 20 17 17 16 19 21 19 22 18 17 14 10 7 7 359 357 354 355 2 1 353 355 24 38 39 162 163 154
129 119 128 127 120 105 106 98 73 59 55 47 48 42 33 24 22 18 22 19 17 17 17 19 23 24 22 21 17 19 14 10 11 14 15 17 34 17 42 63 97 145 153 163
115 123 119 110 100 101 102 94 77 60 60 54 51 46 36 27 24 21 25 25 18 14 18 19 25 28 28 29 30 28 25 24 22 27 29 32 44 53 82 68 118 152 182 191
122 129 121 116 112 105 123 110 91 59 56 45 42 42 39 33 28 23 25 24 19 17 24 27 27 29 32 31 34 34 31 29 27 28 32 35 46 59 98 126 155 143 200 209
126 115 110 115 105 97 110 115 95 68 52 44 42 45 40 38 37 28 27 23 18 19 25 26 28 32 33 34 37 36 33 35 34 32 32 38 42 47 55 77 115 194 218 220
126 128 118 123 126 109 97 91 85 74 53 41 36 35 40 35 31 26 22 19 17 19 23 26 25 28 32 36 35 36 34 35 36 36 34 33 40 43 43 53 78 110 184 193
133 126 119 115 105 136 105 81 79 71 74 44 37 29 25 33 36 27 18 12 15 18 22 22 22 25 28 32 35 37 36 34 35 35 36 36 38 45 47 52 64 74 108 172
144 138 133 125 118 100 135 84 55 72 63 79 33 24 24 28 30 24 14 10 8 13 17 20 20 20 23 26 30 32 33 34 36 33 32 33 33 37 40 39 47 62 78 108
149 142 127 115 96 98 84 77 54 63 60 59 27 19 16 21 25 31 24 12 7 7 11 14 16 19 19 20 24 27 28 28 30 33 31 30 31 30 33 32 32 36 52 74
140 131 147 132 114 104 84 82 53 62 49 27 23 17 12 20 23 24 26 20 9 4 4 8 12 13 15 15 17 19 21 23 23 24 28 29 28 27 26 29 27 27 31 39